Time,TemperatureF,DewpointF,PressureIn,WindDirection,WindDirectionDegrees,WindSpeedMPH,WindSpeedGustMPH,Humidity,HourlyPrecipIn,Conditions,Clouds,dailyrainin,SoftwareType,DateUTC
2013-07-22 00:01:00,53.2,48.2,30.10,NW,317,0.0,0.0,83,0.00,,CLR,0.00,VWS V14.01,2013-07-22 04:01:00,
2013-07-22 00:02:00,53.2,48.2,30.10,NW,317,0.0,0.0,83,0.00,,CLR,0.00,VWS V14.01,2013-07-22 04:02:00,
2013-07-22 00:07:00,53.1,48.0,30.10,NW,317,0.0,0.0,83,0.00,,CLR,0.00,VWS V14.01,2013-07-22 04:07:00,
2013-07-22 00:12:00,52.9,47.9,30.10,NW,317,0.0,0.0,83,0.00,,CLR,0.00,VWS V14.01,2013-07-22 04:12:00,
2013-07-22 00:17:00,52.9,47.9,30.10,NW,317,0.0,0.0,83,0.00,,CLR,0.00,VWS V14.01,2013-07-22 04:17:00,
2013-07-22 00:22:00,52.9,47.9,30.10,NW,317,0.0,0.0,83,0.00,,CLR,0.00,VWS V14.01,2013-07-22 04:22:00,
2013-07-22 00:27:00,52.7,48.0,30.10,NW,317,0.0,0.0,84,0.00,,CLR,0.00,VWS V14.01,2013-07-22 04:27:00,
2013-07-22 00:32:00,52.7,48.0,30.10,NW,317,0.0,0.0,84,0.00,,CLR,0.00,VWS V14.01,2013-07-22 04:32:00,
2013-07-22 00:37:00,52.5,47.8,30.10,NW,317,0.0,0.0,84,0.00,,CLR,0.00,VWS V14.01,2013-07-22 04:37:00,
2013-07-22 00:42:00,52.3,47.7,30.10,NW,317,0.0,0.0,84,0.00,,CLR,0.00,VWS V14.01,2013-07-22 04:42:00,
2013-07-22 00:47:00,52.3,47.7,30.10,NW,317,0.0,0.0,84,0.00,,CLR,0.00,VWS V14.01,2013-07-22 04:47:00,
2013-07-22 00:52:00,52.3,47.7,30.10,NW,317,0.0,0.0,84,0.00,,CLR,0.00,VWS V14.01,2013-07-22 04:52:00,
2013-07-22 00:57:00,52.3,47.7,30.10,NW,317,0.0,0.0,84,0.00,,CLR,0.00,VWS V14.01,2013-07-22 04:57:00,
2013-07-22 01:02:00,52.3,47.7,30.10,NW,317,0.0,0.0,84,0.00,,CLR,0.00,VWS V14.01,2013-07-22 05:02:00,
2013-07-22 01:07:00,52.3,47.7,30.10,NW,317,0.0,0.0,84,0.00,,CLR,0.00,VWS V14.01,2013-07-22 05:07:00,
2013-07-22 01:12:00,51.8,47.1,30.10,NW,317,0.0,0.0,84,0.00,,CLR,0.00,VWS V14.01,2013-07-22 05:12:00,
2013-07-22 01:17:00,51.8,47.4,30.10,NW,317,0.0,0.0,85,0.00,,CLR,0.00,VWS V14.01,2013-07-22 05:17:00,
2013-07-22 01:22:00,51.8,47.4,30.10,NW,317,0.0,0.0,85,0.00,,CLR,0.00,VWS V14.01,2013-07-22 05:22:00,
2013-07-22 01:27:00,51.8,47.4,30.10,NW,317,0.0,0.0,85,0.00,,CLR,0.00,VWS V14.01,2013-07-22 05:27:00,
2013-07-22 01:32:00,51.8,47.4,30.10,NW,317,0.0,0.0,85,0.00,,CLR,0.00,VWS V14.01,2013-07-22 05:32:00,
2013-07-22 01:37:00,51.4,47.4,30.10,NW,317,0.0,0.0,86,0.00,,CLR,0.00,VWS V14.01,2013-07-22 05:37:00,
2013-07-22 01:42:00,51.3,47.2,30.10,NW,317,0.0,0.0,86,0.00,,CLR,0.00,VWS V14.01,2013-07-22 05:42:00,
2013-07-22 01:47:00,51.3,47.2,30.10,NW,317,0.0,0.0,86,0.00,,CLR,0.00,VWS V14.01,2013-07-22 05:47:00,
2013-07-22 01:52:00,51.3,47.2,30.10,NW,317,0.0,0.0,86,0.00,,CLR,0.00,VWS V14.01,2013-07-22 05:52:00,
2013-07-22 01:57:00,51.1,47.0,30.10,NW,317,0.0,0.0,86,0.00,,CLR,0.00,VWS V14.01,2013-07-22 05:57:00,
2013-07-22 02:02:00,51.1,47.0,30.10,NW,317,0.0,0.0,86,0.00,,CLR,0.00,VWS V14.01,2013-07-22 06:02:00,
2013-07-22 02:07:00,51.1,47.0,30.10,NW,317,0.0,0.0,86,0.00,,CLR,0.00,VWS V14.01,2013-07-22 06:07:00,
2013-07-22 02:12:00,51.1,47.0,30.10,NW,317,0.0,0.0,86,0.00,,CLR,0.00,VWS V14.01,2013-07-22 06:12:00,
2013-07-22 02:17:00,51.3,47.5,30.10,NW,317,0.0,0.0,87,0.00,,CLR,0.00,VWS V14.01,2013-07-22 06:17:00,
2013-07-22 02:22:00,51.3,47.5,30.10,NW,317,0.0,0.0,87,0.00,,CLR,0.00,VWS V14.01,2013-07-22 06:22:00,
2013-07-22 02:27:00,51.6,47.9,30.10,NW,317,0.0,0.0,87,0.00,,CLR,0.00,VWS V14.01,2013-07-22 06:27:00,
2013-07-22 02:32:00,51.6,47.9,30.10,NW,317,0.0,0.0,87,0.00,,CLR,0.00,VWS V14.01,2013-07-22 06:32:00,
2013-07-22 02:37:00,51.6,48.2,30.10,NW,317,0.0,0.0,88,0.00,,CLR,0.00,VWS V14.01,2013-07-22 06:37:00,
2013-07-22 02:42:00,51.6,48.2,30.10,NW,317,0.0,0.0,88,0.00,,SCT001,0.00,VWS V14.01,2013-07-22 06:42:00,
2013-07-22 02:47:00,52.2,48.7,30.10,NW,317,0.0,0.0,88,0.00,,SCT001,0.00,VWS V14.01,2013-07-22 06:47:00,
2013-07-22 02:52:00,52.2,48.7,30.10,NW,317,0.0,0.0,88,0.00,,,0.00,VWS V14.01,2013-07-22 06:52:00,
2013-07-22 02:57:00,52.2,48.7,30.10,NW,317,0.0,0.0,88,0.00,,,0.00,VWS V14.01,2013-07-22 06:57:00,
2013-07-22 03:02:00,52.2,48.7,30.10,NW,317,0.0,0.0,88,0.00,,,0.00,VWS V14.01,2013-07-22 07:02:00,
2013-07-22 03:07:00,52.2,48.7,30.10,NW,317,0.0,0.0,88,0.00,,,0.00,VWS V14.01,2013-07-22 07:07:00,
2013-07-22 03:12:00,52.9,49.7,30.10,NW,317,0.0,0.0,89,0.00,,,0.00,VWS V14.01,2013-07-22 07:12:00,
2013-07-22 03:17:00,52.9,49.7,30.10,NW,317,0.0,0.0,89,0.00,,,0.00,VWS V14.01,2013-07-22 07:17:00,
2013-07-22 03:22:00,52.9,49.7,30.10,NW,317,0.0,0.0,89,0.00,,,0.00,VWS V14.01,2013-07-22 07:22:00,
2013-07-22 03:27:00,53.1,49.9,30.10,NW,317,0.0,0.0,89,0.00,,,0.00,VWS V14.01,2013-07-22 07:27:00,
2013-07-22 03:32:00,53.1,49.9,30.10,NW,317,0.0,0.0,89,0.00,,,0.00,VWS V14.01,2013-07-22 07:32:00,
2013-07-22 03:37:00,53.1,49.9,30.10,NW,317,0.0,0.0,89,0.00,,,0.00,VWS V14.01,2013-07-22 07:37:00,
2013-07-22 03:42:00,53.1,49.9,30.10,NW,317,0.0,0.0,89,0.00,,,0.00,VWS V14.01,2013-07-22 07:42:00,
2013-07-22 03:47:00,53.1,49.9,30.10,NW,317,0.0,0.0,89,0.00,,,0.00,VWS V14.01,2013-07-22 07:47:00,
2013-07-22 03:52:00,53.2,50.4,30.10,NW,317,0.0,0.0,90,0.00,,,0.00,VWS V14.01,2013-07-22 07:52:00,
2013-07-22 03:57:00,53.2,50.4,30.10,NW,317,0.0,0.0,90,0.00,,,0.00,VWS V14.01,2013-07-22 07:57:00,
2013-07-22 04:02:00,53.2,50.4,30.10,NW,317,0.0,0.0,90,0.00,,,0.00,VWS V14.01,2013-07-22 08:02:00,
2013-07-22 04:08:00,53.2,50.4,30.10,NW,317,0.0,0.0,90,0.00,,,0.00,VWS V14.01,2013-07-22 08:08:00,
2013-07-22 04:13:00,53.2,50.4,30.10,NW,317,0.0,0.0,90,0.00,,,0.00,VWS V14.01,2013-07-22 08:13:00,
2013-07-22 04:18:00,53.4,50.9,30.10,NW,317,0.0,0.0,91,0.00,,,0.00,VWS V14.01,2013-07-22 08:18:00,
2013-07-22 04:23:00,53.6,50.7,30.10,NW,317,0.0,0.0,90,0.00,,,0.00,VWS V14.01,2013-07-22 08:23:00,
2013-07-22 04:28:00,53.8,50.9,30.10,NW,317,0.0,0.0,90,0.00,,,0.00,VWS V14.01,2013-07-22 08:28:00,
2013-07-22 04:33:00,53.8,50.9,30.10,NW,317,0.0,0.0,90,0.00,,,0.00,VWS V14.01,2013-07-22 08:33:00,
2013-07-22 04:38:00,53.8,50.9,30.10,NW,317,0.0,0.0,90,0.00,,,0.00,VWS V14.01,2013-07-22 08:38:00,
2013-07-22 04:43:00,53.8,50.9,30.10,NW,317,0.0,0.0,90,0.00,,,0.00,VWS V14.01,2013-07-22 08:43:00,
2013-07-22 04:48:00,53.8,51.2,30.10,NW,317,0.0,0.0,91,0.00,,,0.00,VWS V14.01,2013-07-22 08:48:00,
2013-07-22 04:53:00,53.8,51.2,30.10,NW,317,0.0,0.0,91,0.00,,,0.00,VWS V14.01,2013-07-22 08:53:00,
2013-07-22 04:58:00,53.8,51.2,30.10,NW,317,0.0,0.0,91,0.00,,,0.00,VWS V14.01,2013-07-22 08:58:00,
2013-07-22 05:03:00,53.8,51.2,30.10,NW,317,0.0,0.0,91,0.00,,,0.00,VWS V14.01,2013-07-22 09:03:00,
2013-07-22 05:08:00,54.0,51.4,30.10,NW,317,0.0,0.0,91,0.00,,,0.00,VWS V14.01,2013-07-22 09:08:00,
2013-07-22 05:13:00,54.0,51.4,30.10,NW,317,0.0,0.0,91,0.00,,,0.00,VWS V14.01,2013-07-22 09:13:00,
2013-07-22 05:18:00,54.0,51.4,30.10,NW,317,0.0,0.0,91,0.00,,,0.00,VWS V14.01,2013-07-22 09:18:00,
2013-07-22 05:23:00,54.0,51.4,30.10,NW,317,0.0,0.0,91,0.00,,,0.00,VWS V14.01,2013-07-22 09:23:00,
2013-07-22 05:28:00,54.0,51.4,30.10,NW,317,0.0,0.0,91,0.00,,,0.00,VWS V14.01,2013-07-22 09:28:00,
2013-07-22 05:33:00,54.1,51.9,30.10,NW,317,0.0,0.0,92,0.00,,,0.00,VWS V14.01,2013-07-22 09:33:00,
2013-07-22 05:38:00,54.1,51.9,30.10,NW,317,0.0,0.0,92,0.00,,,0.00,VWS V14.01,2013-07-22 09:38:00,
2013-07-22 05:43:00,54.3,52.0,30.10,NW,317,0.0,0.0,92,0.00,,,0.00,VWS V14.01,2013-07-22 09:43:00,
2013-07-22 05:48:00,54.3,52.0,30.10,NW,317,0.0,0.0,92,0.00,,,0.00,VWS V14.01,2013-07-22 09:48:00,
2013-07-22 05:53:00,54.3,52.0,30.10,NW,317,0.0,0.0,92,0.00,,,0.00,VWS V14.01,2013-07-22 09:53:00,
2013-07-22 05:58:00,54.5,52.2,30.10,NW,317,0.0,0.0,92,0.00,,,0.00,VWS V14.01,2013-07-22 09:58:00,
2013-07-22 06:03:00,54.5,52.2,30.10,NW,317,0.0,0.0,92,0.00,,,0.00,VWS V14.01,2013-07-22 10:03:00,
2013-07-22 06:08:00,54.5,52.2,30.10,NW,317,0.0,0.0,92,0.00,,,0.00,VWS V14.01,2013-07-22 10:08:00,
2013-07-22 06:13:00,54.5,52.2,30.10,NW,317,0.0,0.0,92,0.00,,,0.00,VWS V14.01,2013-07-22 10:13:00,
2013-07-22 06:18:00,54.7,52.4,30.10,NW,317,0.0,0.0,92,0.00,,,0.00,VWS V14.01,2013-07-22 10:18:00,
2013-07-22 06:23:00,54.7,52.4,30.10,NW,317,0.0,0.0,92,0.00,,,0.00,VWS V14.01,2013-07-22 10:23:00,
2013-07-22 06:28:00,54.7,52.4,30.10,NW,317,0.0,0.0,92,0.00,,,0.00,VWS V14.01,2013-07-22 10:28:00,
2013-07-22 06:33:00,54.7,52.4,30.10,NW,317,0.0,0.0,92,0.00,,,0.00,VWS V14.01,2013-07-22 10:33:00,
2013-07-22 06:38:00,54.7,52.4,30.10,NW,317,0.0,0.0,92,0.00,,,0.00,VWS V14.01,2013-07-22 10:38:00,
2013-07-22 06:43:00,54.7,52.4,30.10,NW,317,0.0,0.0,92,0.00,,,0.00,VWS V14.01,2013-07-22 10:43:00,
2013-07-22 06:48:00,54.7,52.4,30.10,NW,317,0.0,0.0,92,0.00,,,0.00,VWS V14.01,2013-07-22 10:48:00,
2013-07-22 06:53:00,54.7,52.4,30.10,NW,317,0.0,0.0,92,0.00,,,0.00,VWS V14.01,2013-07-22 10:53:00,
2013-07-22 06:58:00,54.7,52.7,30.10,NW,317,0.0,0.0,93,0.00,,,0.00,VWS V14.01,2013-07-22 10:58:00,
2013-07-22 07:03:00,54.7,52.7,30.10,NW,317,0.0,0.0,93,0.00,,,0.00,VWS V14.01,2013-07-22 11:03:00,
2013-07-22 07:08:00,54.9,52.9,30.10,NW,317,0.0,0.0,93,0.00,,,0.00,VWS V14.01,2013-07-22 11:08:00,
2013-07-22 07:13:00,54.9,52.9,30.10,NW,317,0.0,0.0,93,0.00,,,0.00,VWS V14.01,2013-07-22 11:13:00,
2013-07-22 07:18:00,55.4,53.4,30.10,NW,317,0.0,0.0,93,0.00,,,0.00,VWS V14.01,2013-07-22 11:18:00,
2013-07-22 07:23:00,55.4,53.4,30.10,NW,317,0.0,0.0,93,0.00,,,0.00,VWS V14.01,2013-07-22 11:23:00,
2013-07-22 07:28:00,55.9,54.0,30.10,NW,317,0.0,0.0,93,0.00,,,0.00,VWS V14.01,2013-07-22 11:28:00,
2013-07-22 07:33:00,56.1,54.1,30.10,NW,317,0.0,0.0,93,0.00,,,0.00,VWS V14.01,2013-07-22 11:33:00,
2013-07-22 07:38:00,56.1,54.1,30.10,NW,317,0.0,0.0,93,0.00,,,0.00,VWS V14.01,2013-07-22 11:38:00,
2013-07-22 07:43:00,56.1,54.1,30.10,NW,317,0.0,0.0,93,0.00,,FEW001,0.00,VWS V14.01,2013-07-22 11:43:00,
2013-07-22 07:48:00,56.7,54.7,30.10,NW,317,0.0,0.0,93,0.00,,FEW001,0.00,VWS V14.01,2013-07-22 11:48:00,
2013-07-22 07:53:00,57.2,55.2,30.10,NW,317,0.0,0.0,93,0.00,,FEW001,0.00,VWS V14.01,2013-07-22 11:53:00,
2013-07-22 07:58:00,57.2,55.2,30.10,NW,317,0.0,0.0,93,0.00,,FEW001,0.00,VWS V14.01,2013-07-22 11:58:00,
2013-07-22 08:03:00,57.2,55.2,30.10,NW,317,0.0,0.0,93,0.00,,FEW001,0.00,VWS V14.01,2013-07-22 12:03:00,
2013-07-22 08:08:00,57.7,55.7,30.10,NW,317,0.0,0.0,93,0.00,,FEW001,0.00,VWS V14.01,2013-07-22 12:08:00,
2013-07-22 08:13:00,57.7,55.7,30.10,NW,317,0.0,0.0,93,0.00,,FEW001,0.00,VWS V14.01,2013-07-22 12:13:00,
2013-07-22 08:18:00,58.1,56.1,30.10,NW,318,0.0,0.0,93,0.00,,FEW001,0.00,VWS V14.01,2013-07-22 12:18:00,
2013-07-22 08:23:00,58.1,56.1,30.10,NW,318,0.0,0.0,93,0.00,,FEW001,0.00,VWS V14.01,2013-07-22 12:23:00,
2013-07-22 08:28:00,58.1,56.1,30.10,NW,319,0.0,0.0,93,0.00,,FEW001,0.00,VWS V14.01,2013-07-22 12:28:00,
2013-07-22 08:33:00,58.1,56.1,30.10,NW,320,0.0,0.0,93,0.00,,FEW001,0.00,VWS V14.01,2013-07-22 12:33:00,
2013-07-22 08:38:00,60.4,58.4,30.10,NW,320,0.0,0.0,93,0.00,,FEW001,0.00,VWS V14.01,2013-07-22 12:38:00,
2013-07-22 08:43:00,60.4,58.4,30.10,NW,320,0.0,0.0,93,0.00,,FEW001,0.00,VWS V14.01,2013-07-22 12:43:00,
2013-07-22 08:48:00,60.4,58.4,30.10,NW,320,0.0,0.0,93,0.00,,FEW001,0.00,VWS V14.01,2013-07-22 12:48:00,
2013-07-22 08:53:00,63.0,60.9,30.10,NW,320,0.0,0.0,93,0.00,,CLR,0.00,VWS V14.01,2013-07-22 12:53:00,
2013-07-22 08:58:00,63.0,60.9,30.10,NW,320,0.0,0.0,93,0.00,,CLR,0.00,VWS V14.01,2013-07-22 12:58:00,
2013-07-22 09:03:00,63.1,61.1,30.10,NNW,331,0.0,0.0,93,0.00,,CLR,0.00,VWS V14.01,2013-07-22 13:03:00,
2013-07-22 09:08:00,63.1,61.1,30.10,North,353,0.0,0.0,93,0.00,,CLR,0.00,VWS V14.01,2013-07-22 13:08:00,
2013-07-22 09:13:00,63.1,61.1,30.10,NNE,25,0.0,0.0,93,0.00,,CLR,0.00,VWS V14.01,2013-07-22 13:13:00,
2013-07-22 09:18:00,63.1,61.1,30.10,North,9,0.0,0.0,93,0.00,,CLR,0.00,VWS V14.01,2013-07-22 13:18:00,
2013-07-22 09:23:00,63.1,59.8,30.10,North,9,0.0,0.0,89,0.00,,CLR,0.00,VWS V14.01,2013-07-22 13:23:00,
2013-07-22 09:28:00,63.1,59.8,30.10,North,2,0.0,0.0,89,0.00,,CLR,0.00,VWS V14.01,2013-07-22 13:28:00,
2013-07-22 09:33:00,63.1,59.8,30.10,NE,37,0.0,0.0,89,0.00,,CLR,0.00,VWS V14.01,2013-07-22 13:33:00,
2013-07-22 09:38:00,63.1,59.8,30.10,NE,38,0.0,0.0,89,0.00,,CLR,0.00,VWS V14.01,2013-07-22 13:38:00,
2013-07-22 09:43:00,63.1,59.8,30.10,NE,38,0.0,0.0,89,0.00,,CLR,0.00,VWS V14.01,2013-07-22 13:43:00,
2013-07-22 09:48:00,63.1,59.8,30.10,NNW,345,0.0,0.0,89,0.00,,CLR,0.00,VWS V14.01,2013-07-22 13:48:00,
2013-07-22 09:53:00,66.2,61.2,30.10,NNW,344,0.0,0.0,84,0.00,,CLR,0.00,VWS V14.01,2013-07-22 13:53:00,
2013-07-22 09:58:00,66.7,60.7,30.10,NNW,344,0.0,0.0,81,0.00,,CLR,0.00,VWS V14.01,2013-07-22 13:58:00,
2013-07-22 10:03:00,66.7,60.7,30.07,North,350,0.0,0.0,81,0.00,,CLR,0.00,VWS V14.01,2013-07-22 14:03:00,
2013-07-22 10:08:00,66.7,60.7,30.07,North,350,0.0,0.0,81,0.00,,CLR,0.00,VWS V14.01,2013-07-22 14:08:00,
2013-07-22 10:13:00,67.8,60.0,30.07,North,350,0.0,0.0,76,0.00,,CLR,0.00,VWS V14.01,2013-07-22 14:13:00,
2013-07-22 10:18:00,67.8,60.0,30.07,North,350,0.0,0.0,76,0.00,,CLR,0.00,VWS V14.01,2013-07-22 14:18:00,
2013-07-22 10:23:00,67.8,60.0,30.07,North,350,0.0,0.0,76,0.00,,CLR,0.00,VWS V14.01,2013-07-22 14:23:00,
2013-07-22 10:28:00,67.8,60.0,30.07,North,350,0.0,0.0,76,0.00,,CLR,0.00,VWS V14.01,2013-07-22 14:28:00,
2013-07-22 10:33:00,67.8,60.0,30.07,North,2,0.0,0.0,76,0.00,,CLR,0.00,VWS V14.01,2013-07-22 14:33:00,
2013-07-22 10:38:00,69.4,58.8,30.07,North,2,0.0,0.0,69,0.00,,CLR,0.00,VWS V14.01,2013-07-22 14:38:00,
2013-07-22 10:43:00,69.4,58.8,30.07,NNW,328,0.0,0.0,69,0.00,,CLR,0.00,VWS V14.01,2013-07-22 14:43:00,
2013-07-22 10:48:00,69.4,58.8,30.07,NNW,328,0.0,0.0,69,0.00,,CLR,0.00,VWS V14.01,2013-07-22 14:48:00,
2013-07-22 10:53:00,69.4,58.8,30.07,NNW,341,0.0,0.0,69,0.00,,CLR,0.00,VWS V14.01,2013-07-22 14:53:00,
2013-07-22 10:58:00,69.4,58.8,30.07,NNW,341,0.0,0.0,69,0.00,,CLR,0.00,VWS V14.01,2013-07-22 14:58:00,
2013-07-22 11:03:00,70.0,54.5,30.07,NNW,342,0.0,0.0,58,0.00,,CLR,0.00,VWS V14.01,2013-07-22 15:03:00,
2013-07-22 11:08:00,70.0,54.5,30.07,NNW,342,0.0,0.0,58,0.00,,CLR,0.00,VWS V14.01,2013-07-22 15:08:00,
2013-07-22 11:09:00,70.0,54.5,30.07,NNW,342,0.0,0.0,58,0.00,,CLR,0.00,VWS V14.01,2013-07-22 15:09:00,
2013-07-22 11:14:00,70.3,56.7,30.07,NNW,342,0.0,0.0,62,0.00,,CLR,0.00,VWS V14.01,2013-07-22 15:14:00,
2013-07-22 11:19:00,70.3,56.7,30.07,North,3,0.0,0.0,62,0.00,,CLR,0.00,VWS V14.01,2013-07-22 15:19:00,
2013-07-22 11:24:00,70.5,54.6,30.07,North,349,0.0,0.0,57,0.00,,CLR,0.00,VWS V14.01,2013-07-22 15:24:00,
2013-07-22 11:29:00,70.5,54.6,30.07,North,349,0.0,0.0,57,0.00,,CLR,0.00,VWS V14.01,2013-07-22 15:29:00,
2013-07-22 11:34:00,70.5,54.6,30.07,ESE,112,0.0,0.0,57,0.00,,CLR,0.00,VWS V14.01,2013-07-22 15:34:00,
2013-07-22 11:39:00,70.5,54.6,30.07,ESE,106,0.0,0.0,57,0.00,,CLR,0.00,VWS V14.01,2013-07-22 15:39:00,
2013-07-22 11:44:00,73.0,54.9,30.07,South,172,4.0,4.0,53,0.00,,CLR,0.00,VWS V14.01,2013-07-22 15:44:00,
2013-07-22 11:49:00,73.8,54.0,30.07,South,179,0.0,4.0,50,0.00,,CLR,0.00,VWS V14.01,2013-07-22 15:49:00,
2013-07-22 11:54:00,73.8,53.4,30.07,SSE,166,0.0,0.0,49,0.00,,CLR,0.00,VWS V14.01,2013-07-22 15:54:00,
2013-07-22 11:59:00,73.8,53.4,30.07,SSE,165,2.2,2.2,49,0.00,,CLR,0.00,VWS V14.01,2013-07-22 15:59:00,
2013-07-22 12:04:00,73.8,53.4,30.07,South,172,0.0,4.0,49,0.00,,CLR,0.00,VWS V14.01,2013-07-22 16:04:00,
2013-07-22 12:09:00,75.9,53.1,30.07,South,172,0.0,4.0,45,0.00,,CLR,0.00,VWS V14.01,2013-07-22 16:09:00,
2013-07-22 12:14:00,76.1,52.0,30.07,WSW,254,0.0,0.0,43,0.00,,CLR,0.00,VWS V14.01,2013-07-22 16:14:00,
2013-07-22 12:19:00,75.9,51.8,30.07,SW,217,0.0,0.0,43,0.00,,CLR,0.00,VWS V14.01,2013-07-22 16:19:00,
2013-07-22 12:24:00,75.9,51.8,30.07,SE,126,3.6,4.0,43,0.00,,CLR,0.00,VWS V14.01,2013-07-22 16:24:00,
2013-07-22 12:29:00,75.9,51.8,30.07,South,170,0.0,4.0,43,0.00,,CLR,0.00,VWS V14.01,2013-07-22 16:29:00,
2013-07-22 12:34:00,76.1,50.7,30.07,South,170,0.0,0.0,41,0.00,,CLR,0.00,VWS V14.01,2013-07-22 16:34:00,
2013-07-22 12:39:00,76.1,50.7,30.07,South,173,0.0,0.0,41,0.00,,CLR,0.00,VWS V14.01,2013-07-22 16:39:00,
2013-07-22 12:44:00,76.1,50.7,30.07,South,189,2.7,4.0,41,0.00,,CLR,0.00,VWS V14.01,2013-07-22 16:44:00,
2013-07-22 12:49:00,76.1,50.7,30.07,South,185,0.0,4.0,41,0.00,,CLR,0.00,VWS V14.01,2013-07-22 16:49:00,
2013-07-22 12:54:00,76.1,50.7,30.07,NNW,327,2.7,2.7,41,0.00,,CLR,0.00,VWS V14.01,2013-07-22 16:54:00,
2013-07-22 12:59:00,77.9,53.0,30.04,SSE,160,3.1,3.1,42,0.00,,CLR,0.00,VWS V14.01,2013-07-22 16:59:00,
2013-07-22 13:04:00,79.2,53.5,30.04,South,175,3.1,3.1,41,0.00,,CLR,0.00,VWS V14.01,2013-07-22 17:04:00,
2013-07-22 13:09:00,79.2,53.5,30.04,SSE,164,0.0,3.1,41,0.00,,CLR,0.00,VWS V14.01,2013-07-22 17:09:00,
2013-07-22 13:14:00,79.2,53.5,30.04,South,173,0.0,0.0,41,0.00,,CLR,0.00,VWS V14.01,2013-07-22 17:14:00,
2013-07-22 13:19:00,78.6,51.6,30.04,South,177,0.0,0.0,39,0.00,,CLR,0.00,VWS V14.01,2013-07-22 17:19:00,
2013-07-22 13:24:00,78.6,51.6,30.04,NNW,332,0.0,4.9,39,0.00,,CLR,0.00,VWS V14.01,2013-07-22 17:24:00,
2013-07-22 13:29:00,78.6,51.6,30.04,SW,224,0.0,4.9,39,0.00,,CLR,0.00,VWS V14.01,2013-07-22 17:29:00,
2013-07-22 13:34:00,78.6,51.6,30.04,North,357,5.8,5.8,39,0.00,,CLR,0.00,VWS V14.01,2013-07-22 17:34:00,
2013-07-22 13:39:00,78.6,51.6,30.04,NNW,343,0.0,5.8,39,0.00,,CLR,0.00,VWS V14.01,2013-07-22 17:39:00,
2013-07-22 13:44:00,75.6,50.9,30.04,NNW,337,3.6,4.0,42,0.00,,CLR,0.00,VWS V14.01,2013-07-22 17:44:00,
2013-07-22 13:49:00,75.6,50.9,30.04,North,10,4.9,4.9,42,0.00,,CLR,0.00,VWS V14.01,2013-07-22 17:49:00,
2013-07-22 13:54:00,75.6,50.9,30.04,North,357,0.0,4.9,42,0.00,,CLR,0.00,VWS V14.01,2013-07-22 17:54:00,
2013-07-22 13:59:00,75.6,50.9,30.04,NW,322,2.7,4.9,42,0.00,,CLR,0.00,VWS V14.01,2013-07-22 17:59:00,
2013-07-22 14:05:00,75.6,50.9,30.04,NNW,329,0.0,3.6,42,0.00,,CLR,0.00,VWS V14.01,2013-07-22 18:05:00,
2013-07-22 14:10:00,76.3,52.2,30.04,NNW,329,0.0,0.0,43,0.00,,CLR,0.00,VWS V14.01,2013-07-22 18:10:00,
2013-07-22 14:15:00,76.3,52.2,30.04,NNW,329,0.0,0.0,43,0.00,,CLR,0.00,VWS V14.01,2013-07-22 18:15:00,
2013-07-22 14:20:00,77.5,52.7,30.04,NNW,333,0.0,0.0,42,0.00,,CLR,0.00,VWS V14.01,2013-07-22 18:20:00,
2013-07-22 14:26:00,77.5,52.7,30.04,NNW,329,0.0,0.0,42,0.00,,CLR,0.00,VWS V14.01,2013-07-22 18:26:00,
2013-07-22 14:31:00,78.4,53.5,30.04,South,188,0.0,0.0,42,0.00,,CLR,0.00,VWS V14.01,2013-07-22 18:31:00,
2013-07-22 14:36:00,78.4,53.5,30.04,SE,137,0.0,3.1,42,0.00,,CLR,0.00,VWS V14.01,2013-07-22 18:36:00,
2013-07-22 14:41:00,78.4,50.8,30.04,NE,48,4.0,4.0,38,0.00,,CLR,0.00,VWS V14.01,2013-07-22 18:41:00,
2013-07-22 14:46:00,78.4,50.8,30.04,NNW,344,0.0,4.0,38,0.00,,CLR,0.00,VWS V14.01,2013-07-22 18:46:00,
2013-07-22 14:51:00,78.4,50.8,30.04,NNW,344,0.0,0.0,38,0.00,,CLR,0.00,VWS V14.01,2013-07-22 18:51:00,
2013-07-22 14:56:00,79.5,53.8,30.04,NNW,345,0.0,0.0,41,0.00,,CLR,0.00,VWS V14.01,2013-07-22 18:56:00,
2013-07-22 15:01:00,80.2,54.4,30.04,South,174,4.0,4.0,41,0.00,,CLR,0.00,VWS V14.01,2013-07-22 19:01:00,
2013-07-22 15:06:00,80.2,54.4,30.04,SW,215,0.0,4.0,41,0.00,,CLR,0.00,VWS V14.01,2013-07-22 19:06:00,
2013-07-22 15:11:00,80.6,52.0,30.04,SW,217,0.0,0.0,37,0.00,,CLR,0.00,VWS V14.01,2013-07-22 19:11:00,
2013-07-22 15:17:00,80.4,52.5,30.04,NW,324,0.0,0.0,38,0.00,,CLR,0.00,VWS V14.01,2013-07-22 19:17:00,
2013-07-22 15:22:00,80.4,52.5,30.04,SSW,210,0.0,0.0,38,0.00,,CLR,0.00,VWS V14.01,2013-07-22 19:22:00,
2013-07-22 15:27:00,80.4,52.5,30.04,SW,227,0.0,0.0,38,0.00,,CLR,0.00,VWS V14.01,2013-07-22 19:27:00,
2013-07-22 15:32:00,80.2,52.3,30.04,WSW,241,0.0,0.0,38,0.00,,CLR,0.00,VWS V14.01,2013-07-22 19:32:00,
2013-07-22 15:37:00,80.2,52.3,30.04,NW,323,0.0,0.0,38,0.00,,CLR,0.00,VWS V14.01,2013-07-22 19:37:00,
2013-07-22 15:42:00,79.5,51.7,30.04,South,174,0.0,2.7,38,0.00,,CLR,0.00,VWS V14.01,2013-07-22 19:42:00,
2013-07-22 15:47:00,79.5,51.7,30.04,South,174,0.0,2.7,38,0.00,,CLR,0.00,VWS V14.01,2013-07-22 19:47:00,
2013-07-22 15:52:00,79.5,51.7,30.04,South,174,0.0,0.0,38,0.00,,CLR,0.00,VWS V14.01,2013-07-22 19:52:00,
2013-07-22 15:58:00,79.5,51.7,30.04,North,357,2.7,2.7,38,0.00,,CLR,0.00,VWS V14.01,2013-07-22 19:58:00,
2013-07-22 16:03:00,79.5,51.7,30.04,North,349,3.1,3.1,38,0.00,,CLR,0.00,VWS V14.01,2013-07-22 20:03:00,
2013-07-22 16:08:00,78.3,53.3,30.04,North,2,0.0,3.6,42,0.00,,CLR,0.00,VWS V14.01,2013-07-22 20:08:00,
2013-07-22 16:13:00,78.3,53.3,30.04,NNW,341,0.0,5.4,42,0.00,,CLR,0.00,VWS V14.01,2013-07-22 20:13:00,
2013-07-22 16:16:00,78.3,53.3,30.04,NNW,341,0.0,5.4,42,0.00,,CLR,0.00,VWS V14.01,2013-07-22 20:16:00,
2013-07-22 16:17:00,78.3,53.3,30.04,NNW,341,0.0,5.4,42,0.00,,CLR,0.00,VWS V14.01,2013-07-22 20:17:00,
2013-07-22 16:22:00,78.3,53.3,30.04,NNE,21,4.0,4.0,42,0.00,,CLR,0.00,VWS V14.01,2013-07-22 20:22:00,
2013-07-22 16:27:00,76.6,52.5,30.04,North,11,3.1,4.0,43,0.00,,CLR,0.00,VWS V14.01,2013-07-22 20:27:00,
2013-07-22 16:32:00,76.6,52.5,30.04,North,2,2.7,3.1,43,0.00,,CLR,0.00,VWS V14.01,2013-07-22 20:32:00,
2013-07-22 16:37:00,76.6,53.1,30.04,North,357,0.0,3.1,44,0.00,,CLR,0.00,VWS V14.01,2013-07-22 20:37:00,
2013-07-22 16:42:00,76.6,53.1,30.04,North,5,0.0,0.0,44,0.00,,CLR,0.00,VWS V14.01,2013-07-22 20:42:00,
2013-07-22 16:43:00,76.6,53.1,30.04,North,5,0.0,0.0,44,0.00,,CLR,0.00,VWS V14.01,2013-07-22 20:43:00,
2013-07-22 16:48:00,77.0,52.8,30.04,NNW,344,0.0,0.0,43,0.00,,CLR,0.00,VWS V14.01,2013-07-22 20:48:00,
2013-07-22 16:53:00,77.2,53.0,30.04,NNW,337,0.0,0.0,43,0.00,,CLR,0.00,VWS V14.01,2013-07-22 20:53:00,
2013-07-22 16:58:00,77.2,53.0,30.04,North,2,2.2,3.1,43,0.00,,CLR,0.00,VWS V14.01,2013-07-22 20:58:00,
2013-07-22 17:03:00,77.2,53.0,30.04,NW,322,0.0,2.2,43,0.00,,CLR,0.00,VWS V14.01,2013-07-22 21:03:00,
2013-07-22 17:08:00,77.7,52.8,30.04,North,353,4.0,8.7,42,0.00,,CLR,0.00,VWS V14.01,2013-07-22 21:08:00,
2013-07-22 17:13:00,77.7,52.8,29.96,North,350,0.0,0.0,42,0.00,,CLR,0.00,VWS V14.01,2013-07-22 21:13:00,
2013-07-22 17:18:00,77.4,52.5,29.96,North,353,0.0,0.0,42,0.00,,CLR,0.00,VWS V14.01,2013-07-22 21:18:00,
2013-07-22 17:23:00,77.4,53.1,29.96,North,350,0.0,0.0,43,0.00,,CLR,0.00,VWS V14.01,2013-07-22 21:23:00,
2013-07-22 17:28:00,77.4,53.1,29.96,NNW,348,0.0,4.0,43,0.00,,CLR,0.00,VWS V14.01,2013-07-22 21:28:00,
2013-07-22 17:33:00,77.4,53.1,29.96,NNW,348,0.0,0.0,43,0.00,,CLR,0.00,VWS V14.01,2013-07-22 21:33:00,
2013-07-22 17:38:00,77.9,53.6,29.96,NNW,332,0.0,0.0,43,0.00,,CLR,0.00,VWS V14.01,2013-07-22 21:38:00,
2013-07-22 17:43:00,77.9,53.6,29.96,NNW,332,0.0,4.0,43,0.00,,CLR,0.00,VWS V14.01,2013-07-22 21:43:00,
2013-07-22 17:48:00,77.9,53.6,29.96,NNW,332,0.0,4.0,43,0.00,,CLR,0.00,VWS V14.01,2013-07-22 21:48:00,
2013-07-22 17:53:00,77.9,53.6,29.96,NNW,332,0.0,0.0,43,0.00,,CLR,0.00,VWS V14.01,2013-07-22 21:53:00,
2013-07-22 17:58:00,77.9,53.6,29.96,NNW,341,0.0,0.0,43,0.00,,CLR,0.00,VWS V14.01,2013-07-22 21:58:00,
2013-07-22 18:03:00,77.0,54.1,29.96,NNE,19,2.2,3.6,45,0.00,,CLR,0.00,VWS V14.01,2013-07-22 22:03:00,
2013-07-22 18:08:00,77.0,54.1,29.96,NNE,16,2.2,3.6,45,0.00,,CLR,0.00,VWS V14.01,2013-07-22 22:08:00,
2013-07-22 18:13:00,77.0,54.1,29.96,NNE,16,0.0,2.2,45,0.00,,CLR,0.00,VWS V14.01,2013-07-22 22:13:00,
2013-07-22 18:18:00,76.1,55.0,29.96,NNE,16,0.0,2.2,48,0.00,,CLR,0.00,VWS V14.01,2013-07-22 22:18:00,
2013-07-22 18:23:00,76.1,55.0,29.96,North,357,4.9,4.9,48,0.00,,CLR,0.00,VWS V14.01,2013-07-22 22:23:00,
2013-07-22 18:28:00,76.1,55.0,29.96,NNW,338,0.0,4.9,48,0.00,,CLR,0.00,VWS V14.01,2013-07-22 22:28:00,
2013-07-22 18:33:00,75.9,55.4,29.96,NNE,12,0.0,5.4,49,0.00,,CLR,0.00,VWS V14.01,2013-07-22 22:33:00,
2013-07-22 18:38:00,76.1,56.1,29.96,NNE,21,0.0,5.4,50,0.00,,CLR,0.00,VWS V14.01,2013-07-22 22:38:00,
2013-07-22 18:43:00,76.1,56.1,29.96,North,11,3.6,3.6,50,0.00,,CLR,0.00,VWS V14.01,2013-07-22 22:43:00,
2013-07-22 18:48:00,76.1,56.1,29.96,NNE,16,0.0,3.6,50,0.00,,CLR,0.00,VWS V14.01,2013-07-22 22:48:00,
2013-07-22 18:53:00,76.1,56.1,29.96,NNW,341,0.0,0.0,50,0.00,,CLR,0.00,VWS V14.01,2013-07-22 22:53:00,
2013-07-22 18:58:00,75.7,55.8,29.96,North,5,4.5,4.5,50,0.00,,CLR,0.00,VWS V14.01,2013-07-22 22:58:00,
2013-07-22 19:03:00,75.7,56.3,29.96,NNE,13,0.0,2.2,51,0.00,,CLR,0.00,VWS V14.01,2013-07-22 23:03:00,
2013-07-22 19:08:00,75.7,56.3,29.96,SSE,159,3.1,6.3,51,0.00,,CLR,0.00,VWS V14.01,2013-07-22 23:08:00,
2013-07-22 19:13:00,74.3,55.0,29.96,South,173,11.0,11.0,51,0.00,,CLR,0.00,VWS V14.01,2013-07-22 23:13:00,
2013-07-22 19:18:00,71.1,54.6,29.96,SSE,162,7.2,11.0,56,0.00,,CLR,0.00,VWS V14.01,2013-07-22 23:18:00,
2013-07-22 19:23:00,68.7,53.8,29.96,SSE,162,4.9,5.8,59,0.51,,CLR,0.51,VWS V14.01,2013-07-22 23:23:00,
2013-07-22 19:28:00,67.3,53.8,29.96,SSE,154,0.0,5.8,62,0.51,,CLR,0.51,VWS V14.01,2013-07-22 23:28:00,
2013-07-22 19:33:00,67.3,53.8,29.96,SSE,154,0.0,0.0,62,0.51,,CLR,0.51,VWS V14.01,2013-07-22 23:33:00,
2013-07-22 19:39:00,66.2,54.1,29.96,SSE,154,0.0,0.0,65,0.75,,CLR,0.75,VWS V14.01,2013-07-22 23:39:00,
2013-07-22 19:43:00,65.8,55.0,29.96,SSE,154,0.0,0.0,68,0.79,,FEW045,0.79,VWS V14.01,2013-07-22 23:43:00,
2013-07-22 19:48:00,65.8,55.0,29.96,SSE,154,0.0,0.0,68,0.79,,FEW045,0.79,VWS V14.01,2013-07-22 23:48:00,
2013-07-22 19:53:00,65.7,56.0,29.96,SSE,154,0.0,0.0,71,0.79,,FEW045,0.79,VWS V14.01,2013-07-22 23:53:00,
2013-07-22 19:58:00,65.8,56.6,29.96,SSE,154,0.0,0.0,72,0.79,,FEW045,0.79,VWS V14.01,2013-07-22 23:58:00,
2013-07-22 20:03:00,65.8,57.0,29.96,SSE,154,0.0,0.0,73,0.79,,FEW045,0.79,VWS V14.01,2013-07-23 00:03:00,
2013-07-22 20:09:00,65.8,57.7,29.96,SSE,154,0.0,0.0,75,0.91,,FEW045,0.91,VWS V14.01,2013-07-23 00:09:00,
2013-07-22 20:14:00,65.8,57.7,29.96,ESE,104,0.0,0.0,75,0.91,,OVC060,0.91,VWS V14.01,2013-07-23 00:14:00,
2013-07-22 20:19:00,65.8,58.4,29.96,ESE,104,0.0,0.0,77,0.91,,OVC060,0.91,VWS V14.01,2013-07-23 00:19:00,
2013-07-22 20:24:00,65.8,58.8,29.96,ESE,104,0.0,0.0,78,0.91,,OVC060,0.91,VWS V14.01,2013-07-23 00:24:00,
2013-07-22 20:29:00,65.8,59.2,29.96,ESE,104,0.0,0.0,79,0.91,,OVC060,0.91,VWS V14.01,2013-07-23 00:29:00,
2013-07-22 20:34:00,65.8,59.2,29.96,NNE,33,0.0,0.0,79,0.39,,OVC060,0.91,VWS V14.01,2013-07-23 00:34:00,
2013-07-22 20:39:00,65.7,59.3,29.96,North,349,0.0,0.0,80,0.39,,OVC060,0.91,VWS V14.01,2013-07-23 00:39:00,
2013-07-22 20:44:00,65.7,59.7,29.96,North,349,0.0,0.0,81,0.16,,OVC060,0.91,VWS V14.01,2013-07-23 00:44:00,
2013-07-22 20:49:00,65.7,59.7,29.96,North,349,0.0,0.0,81,0.16,,OVC060,0.91,VWS V14.01,2013-07-23 00:49:00,
2013-07-22 20:54:00,65.8,60.2,29.96,NNW,345,0.0,0.0,82,0.12,,OVC060,0.91,VWS V14.01,2013-07-23 00:54:00,
2013-07-22 20:59:00,65.8,60.5,29.96,NNW,345,0.0,0.0,83,0.12,,OVC060,0.91,VWS V14.01,2013-07-23 00:59:00,
2013-07-22 21:04:00,65.8,60.5,29.96,NNW,345,0.0,0.0,83,0.12,,OVC060,0.91,VWS V14.01,2013-07-23 01:04:00,
2013-07-22 21:09:00,65.8,60.5,29.96,NNW,345,0.0,0.0,83,0.12,,OVC060,0.91,VWS V14.01,2013-07-23 01:09:00,
2013-07-22 21:14:00,65.8,60.5,29.96,NNW,345,0.0,0.0,83,0.00,,OVC060,0.91,VWS V14.01,2013-07-23 01:14:00,
2013-07-22 21:19:00,65.8,60.5,29.96,NNW,345,0.0,0.0,83,0.00,,OVC060,0.91,VWS V14.01,2013-07-23 01:19:00,
2013-07-22 21:24:00,65.8,60.5,29.96,NNW,345,0.0,0.0,83,0.00,,OVC060,0.91,VWS V14.01,2013-07-23 01:24:00,
2013-07-22 21:29:00,65.7,60.7,29.96,NNW,345,0.0,0.0,84,0.00,,OVC060,0.91,VWS V14.01,2013-07-23 01:29:00,
2013-07-22 21:34:00,65.7,60.4,29.96,NNW,345,0.0,0.0,83,0.00,,OVC060,0.91,VWS V14.01,2013-07-23 01:34:00,
2013-07-22 21:39:00,65.7,60.4,29.96,NNW,345,0.0,0.0,83,0.00,,OVC060,0.91,VWS V14.01,2013-07-23 01:39:00,
2013-07-22 21:44:00,66.0,61.4,29.96,NNW,345,0.0,0.0,85,0.00,,RA,0.91,VWS V14.01,2013-07-23 01:44:00,
2013-07-22 21:49:00,66.0,61.4,29.96,NNW,346,0.0,0.0,85,0.00,,RA,0.91,VWS V14.01,2013-07-23 01:49:00,
2013-07-22 21:54:00,66.0,61.4,29.96,NNW,346,0.0,0.0,85,0.00,,RA,0.91,VWS V14.01,2013-07-23 01:54:00,
2013-07-22 21:59:00,66.0,61.7,29.96,NNW,346,0.0,0.0,86,0.00,,RA,0.91,VWS V14.01,2013-07-23 01:59:00,
2013-07-22 22:04:00,66.0,61.7,29.96,NNW,346,0.0,0.0,86,0.00,,RA,0.91,VWS V14.01,2013-07-23 02:04:00,
2013-07-22 22:09:00,66.0,61.7,29.96,NNW,346,0.0,0.0,86,0.00,,RA,0.91,VWS V14.01,2013-07-23 02:09:00,
2013-07-22 22:14:00,66.0,61.7,29.96,NNW,346,0.0,0.0,86,0.00,,RA,0.91,VWS V14.01,2013-07-23 02:14:00,
2013-07-22 22:19:00,65.8,61.5,29.96,NNW,346,0.0,0.0,86,0.00,,RA,0.91,VWS V14.01,2013-07-23 02:19:00,
2013-07-22 22:24:00,65.8,61.5,29.96,NNW,346,0.0,0.0,86,0.00,,RA,0.91,VWS V14.01,2013-07-23 02:24:00,
2013-07-22 22:29:00,66.0,62.0,29.96,NNW,346,0.0,0.0,87,0.00,,RA,0.91,VWS V14.01,2013-07-23 02:29:00,
2013-07-22 22:34:00,65.8,61.9,29.96,NNW,346,0.0,0.0,87,0.00,,RA,0.91,VWS V14.01,2013-07-23 02:34:00,
2013-07-22 22:39:00,65.8,61.9,29.96,North,353,0.0,0.0,87,0.00,,RA,0.91,VWS V14.01,2013-07-23 02:39:00,
2013-07-22 22:44:00,66.0,62.4,29.96,North,353,0.0,0.0,88,0.00,,,0.91,VWS V14.01,2013-07-23 02:44:00,
2013-07-22 22:49:00,66.0,62.4,29.96,North,353,0.0,0.0,88,0.00,,,0.91,VWS V14.01,2013-07-23 02:49:00,
2013-07-22 22:54:00,66.0,62.4,29.96,North,353,0.0,0.0,88,0.00,,,0.91,VWS V14.01,2013-07-23 02:54:00,
2013-07-22 22:59:00,66.0,62.4,29.96,North,353,0.0,0.0,88,0.00,,,0.91,VWS V14.01,2013-07-23 02:59:00,
2013-07-22 23:04:00,66.0,62.4,29.96,North,353,0.0,0.0,88,0.00,,,0.91,VWS V14.01,2013-07-23 03:04:00,
2013-07-22 23:09:00,65.8,62.2,29.96,North,353,0.0,0.0,88,0.00,,,0.91,VWS V14.01,2013-07-23 03:09:00,
2013-07-22 23:14:00,65.8,62.2,29.96,North,353,0.0,0.0,88,0.00,,,0.91,VWS V14.01,2013-07-23 03:14:00,
2013-07-22 23:19:00,65.8,62.5,29.96,North,353,0.0,0.0,89,0.00,,,0.91,VWS V14.01,2013-07-23 03:19:00,
2013-07-22 23:24:00,65.8,62.5,29.96,North,353,0.0,0.0,89,0.00,,,0.91,VWS V14.01,2013-07-23 03:24:00,
2013-07-22 23:29:00,65.8,62.5,29.96,North,353,0.0,0.0,89,0.00,,,0.91,VWS V14.01,2013-07-23 03:29:00,
2013-07-22 23:34:00,65.7,62.3,29.96,North,353,0.0,0.0,89,0.00,,,0.91,VWS V14.01,2013-07-23 03:34:00,
2013-07-22 23:39:00,65.7,62.3,29.96,North,353,0.0,0.0,89,0.00,,,0.91,VWS V14.01,2013-07-23 03:39:00,
2013-07-22 23:44:00,65.7,62.3,29.96,North,353,0.0,0.0,89,0.00,,,0.91,VWS V14.01,2013-07-23 03:44:00,
2013-07-22 23:49:00,65.7,62.3,29.96,North,353,0.0,0.0,89,0.00,,,0.91,VWS V14.01,2013-07-23 03:49:00,
2013-07-22 23:54:00,65.7,62.7,29.96,North,353,0.0,0.0,90,0.00,,,0.91,VWS V14.01,2013-07-23 03:54:00,
2013-07-22 23:59:00,65.7,62.7,29.96,North,353,0.0,0.0,90,0.00,,,0.91,VWS V14.01,2013-07-23 03:59:00,